User: anonymous   Login
Location: Anciles
(42.5833°N, 0.5167°E)
Time: 10:58:05
(UTC+00:00)
Language:

CSL-04 Debris - Orbit

View from above orbital plane
View from above orbital plane
View from above satellite
View from above satellite

Ground track
Ground track

The orbit data is extracted from the following two-line orbital elements,

1 25733U 99025D   20057.46904817  .00000096  00000-0  71042-4 0  9991
2 25733  98.9608  85.0458 0013828 281.1524  78.8095 14.16337777 73910
Epoch (UTC): 26 February 2020 11:15:25
Eccentricity: 0.0013828
inclination: 98.9608°
perigee height: 828 km
apogee height: 848 km
right ascension of ascending node: 85.0458°
argument of perigee: 281.1524°
revolutions per day: 14.16337777
mean anomaly at epoch: 78.8095°
orbit number at epoch: 7391

The dashed part of the orbit path shows where the satellite is in the earth's shadow,  

DLR